Total_Precipitation_Accumulation
1.13 1.15 1.10 1.08 1.04 0.95 0.93 0.88 0.76 0.63 0.56 0.44 0.33 0.26 0.24 0.21 0.26 0.24 0.18 0.13 0.10 0.08 0.06 0.05 0.06 0.05 0.05 0.04 0.04 0.04 0.04 0.04 0.05 0.05 0.05 0.05 0.04 0.04
1.08 1.09 1.05 1.03 0.97 0.88 0.86 0.90 0.81 0.64 0.54 0.49 0.38 0.31 0.29 0.25 0.27 0.24 0.22 0.20 0.12 0.09 0.06 0.06 0.07 0.06 0.05 0.03 0.02 0.02 0.02 0.02 0.02 0.03 0.04 0.03 0.03 0.03
0.66 0.67 0.77 0.87 0.90 0.87 0.82 0.83 0.85 0.74 0.59 0.58 0.44 0.40 0.41 0.34 0.31 0.24 0.21 0.21 0.18 0.13 0.11 0.09 0.07 0.06 0.05 0.04 0.03 0.02 0.02 0.01 0.01 0.02 0.03 0.04 0.04 0.04
0.55 0.50 0.52 0.59 0.64 0.72 0.75 0.74 0.76 0.79 0.72 0.70 0.66 0.53 0.48 0.44 0.44 0.40 0.31 0.29 0.29 0.28 0.27 0.18 0.12 0.08 0.07 0.05 0.04 0.02 0.01 0.01 0.01 0.02 0.02 0.03 0.04 0.04
0.49 0.47 0.46 0.45 0.49 0.55 0.63 0.70 0.72 0.74 0.73 0.67 0.72 0.71 0.57 0.51 0.46 0.41 0.37 0.40 0.38 0.34 0.39 0.35 0.27 0.19 0.15 0.12 0.09 0.06 0.05 0.04 0.05 0.05 0.05 0.04 0.04 0.04
0.51 0.48 0.42 0.38 0.43 0.58 0.67 0.70 0.69 0.69 0.71 0.71 0.73 0.74 0.65 0.53 0.47 0.47 0.51 0.55 0.48 0.38 0.31 0.32 0.30 0.24 0.20 0.17 0.16 0.14 0.12 0.10 0.09 0.08 0.08 0.08 0.08 0.08
0.46 0.43 0.40 0.39 0.37 0.46 0.56 0.73 0.72 0.74 0.74 0.75 0.74 0.67 0.58 0.47 0.46 0.50 0.51 0.57 0.50 0.44 0.38 0.31 0.31 0.28 0.25 0.23 0.23 0.22 0.19 0.18 0.16 0.14 0.13 0.12 0.12 0.13
0.46 0.45 0.43 0.38 0.33 0.32 0.31 0.45 0.58 0.67 0.74 0.71 0.70 0.66 0.61 0.53 0.56 0.52 0.44 0.41 0.41 0.46 0.38 0.37 0.33 0.31 0.34 0.32 0.37 0.41 0.36 0.30 0.25 0.21 0.18 0.17 0.17 0.18
0.43 0.48 0.52 0.47 0.45 0.45 0.35 0.33 0.34 0.38 0.45 0.50 0.57 0.58 0.58 0.54 0.52 0.49 0.45 0.42 0.36 0.34 0.29 0.29 0.29 0.27 0.28 0.27 0.26 0.27 0.27 0.26 0.23 0.21 0.20 0.19 0.19 0.19
0.44 0.45 0.53 0.55 0.57 0.62 0.54 0.54 0.44 0.35 0.35 0.35 0.41 0.43 0.40 0.45 0.50 0.58 0.56 0.41 0.30 0.26 0.21 0.17 0.18 0.17 0.15 0.15 0.16 0.14 0.14 0.14 0.15 0.15 0.15 0.14 0.14 0.14
0.41 0.45 0.53 0.59 0.74 0.77 0.75 0.69 0.54 0.42 0.43 0.49 0.49 0.46 0.45 0.47 0.48 0.52 0.51 0.44 0.36 0.34 0.27 0.18 0.15 0.13 0.10 0.09 0.09 0.08 0.07 0.07 0.07 0.07 0.07 0.08 0.09 0.10
0.47 0.47 0.64 0.65 0.72 0.70 0.67 0.72 0.66 0.50 0.42 0.45 0.45 0.44 0.40 0.43 0.50 0.53 0.59 0.60 0.49 0.40 0.31 0.23 0.21 0.20 0.18 0.14 0.09 0.06 0.05 0.05 0.05 0.05 0.06 0.06 0.07 0.07
0.43 0.44 0.40 0.52 0.52 0.55 0.58 0.59 0.70 0.54 0.46 0.46 0.39 0.34 0.30 0.30 0.35 0.38 0.48 0.54 0.53 0.46 0.38 0.31 0.29 0.27 0.21 0.17 0.13 0.09 0.05 0.04 0.04 0.05 0.05 0.06 0.06 0.05
0.28 0.32 0.31 0.38 0.43 0.47 0.44 0.52 0.60 0.52 0.43 0.44 0.37 0.29 0.28 0.24 0.22 0.23 0.27 0.32 0.38 0.40 0.38 0.31 0.27 0.24 0.19 0.15 0.13 0.10 0.07 0.05 0.04 0.04 0.04 0.05 0.04 0.04
0.17 0.24 0.29 0.35 0.34 0.34 0.39 0.48 0.47 0.48 0.52 0.46 0.40 0.30 0.23 0.19 0.13 0.13 0.17 0.18 0.20 0.21 0.24 0.29 0.32 0.28 0.21 0.15 0.09 0.07 0.07 0.07 0.05 0.04 0.05 0.05 0.04 0.03
0.14 0.21 0.29 0.38 0.35 0.34 0.36 0.41 0.43 0.48 0.53 0.46 0.36 0.26 0.17 0.14 0.11 0.11 0.13 0.11 0.12 0.13 0.14 0.19 0.32 0.42 0.42 0.36 0.29 0.22 0.19 0.16 0.14 0.13 0.11 0.08 0.07 0.07
0.19 0.33 0.45 0.47 0.44 0.39 0.37 0.41 0.40 0.37 0.38 0.37 0.35 0.26 0.17 0.13 0.10 0.08 0.08 0.08 0.09 0.10 0.11 0.09 0.09 0.15 0.23 0.29 0.33 0.34 0.34 0.33 0.31 0.30 0.25 0.17 0.13 0.14
0.35 0.52 0.60 0.66 0.63 0.55 0.50 0.47 0.44 0.39 0.36 0.35 0.35 0.28 0.19 0.14 0.11 0.09 0.08 0.08 0.09 0.09 0.09 0.07 0.04 0.05 0.08 0.12 0.13 0.18 0.22 0.22 0.24 0.27 0.27 0.22 0.16 0.17
0.66 0.69 0.69 0.71 0.70 0.60 0.49 0.43 0.34 0.27 0.27 0.27 0.26 0.22 0.17 0.11 0.07 0.06 0.05 0.05 0.05 0.05 0.04 0.04 0.05 0.06 0.08 0.10 0.11 0.09 0.13 0.16 0.18 0.19 0.19 0.18 0.15 0.15
0.73 0.74 0.79 0.76 0.70 0.54 0.38 0.30 0.20 0.16 0.16 0.15 0.12 0.09 0.07 0.05 0.03 0.03 0.03 0.02 0.02 0.02 0.03 0.05 0.06 0.07 0.10 0.11 0.11 0.09 0.10 0.15 0.18 0.18 0.17 0.16 0.14 0.14
0.39 0.44 0.47 0.45 0.39 0.28 0.18 0.14 0.08 0.06 0.06 0.05 0.05 0.04 0.03 0.02 0.03 0.03 0.03 0.03 0.03 0.04 0.04 0.04 0.05 0.05 0.05 0.08 0.10 0.09 0.09 0.12 0.13 0.12 0.13 0.15 0.16 0.16
0.12 0.13 0.12 0.11 0.09 0.07 0.05 0.04 0.04 0.03 0.03 0.02 0.02 0.02 0.03 0.03 0.02 0.03 0.04 0.04 0.05 0.04 0.04 0.04 0.03 0.04 0.05 0.07 0.09 0.08 0.06 0.05 0.08 0.13 0.14 0.14 0.14 0.15
0.03 0.04 0.04 0.03 0.02 0.01 0.01 0.02 0.02 0.02 0.01 0.02 0.01 0.02 0.02 0.03 0.03 0.03 0.03 0.04 0.04 0.04 0.03 0.03 0.03 0.03 0.04 0.06 0.07 0.07 0.06 0.05 0.06 0.09 0.17 0.26 0.23 0.16